| time (UTC) | temp C | wind direction | speed KPH | gust KPH | rain 1hr cm | rain 24hr cm | rain mn cm | humidity % | barometer mb |
| 20260507192108 | 18 | 198 | 11.3 | 14.5 | 0.00 | 0.00 | 0.00 | 47 | 1012.7 |
| 20260507191604 | 18 | 208 | 6.4 | 8.0 | 0.00 | 0.00 | 0.00 | 47 | 1012.9 |
| 20260507191101 | 19 | 174 | 4.8 | 4.8 | 0.00 | 0.00 | 0.00 | 45 | 1012.9 |
| 20260507190558 | 19 | 260 | 4.8 | 11.3 | 0.00 | 0.00 | 0.00 | 46 | 1013.3 |
| 20260507190057 | 19 | 165 | 4.8 | 8.0 | 0.00 | 0.00 | 0.00 | 46 | 1012.9 |
| 20260507185555 | 18 | 218 | 1.6 | 4.8 | 0.00 | 0.00 | 0.00 | 47 | 1013.2 |
| 20260507185051 | 18 | 165 | 0.0 | 1.6 | 0.00 | 0.00 | 0.00 | 49 | 1013.2 |
| 20260507184549 | 18 | 203 | 11.3 | 12.9 | 0.00 | 0.00 | 0.00 | 46 | 1013.6 |
| 20260507184047 | 18 | 225 | 8.0 | 9.7 | 0.00 | 0.00 | 0.00 | 48 | 1013.6 |
| 20260507183542 | 18 | 225 | 11.3 | 12.9 | 0.00 | 0.00 | 0.00 | 48 | 1013.7 |
| 20260507183040 | 18 | 193 | 6.4 | 12.9 | 0.00 | 0.00 | 0.00 | 47 | 1013.5 |
| 20260507182536 | 18 | 165 | 9.7 | 14.5 | 0.00 | 0.00 | 0.00 | 48 | 1013.5 |
| 20260507182032 | 18 | 233 | 17.7 | 22.5 | 0.00 | 0.00 | 0.00 | 46 | 1013.6 |
| 20260507181529 | 18 | 208 | 6.4 | 9.7 | 0.00 | 0.00 | 0.00 | 48 | 1013.7 |
| 20260507181025 | 18 | 345 | 1.6 | 3.2 | 0.00 | 0.00 | 0.00 | 49 | 1013.9 |
| 20260507180522 | 18 | 171 | 9.7 | 12.9 | 0.00 | 0.00 | 0.00 | 46 | 1014.1 |
| 20260507180019 | 18 | 45 | 1.6 | 3.2 | 0.00 | 0.00 | 0.00 | 49 | 1014.1 |
| 20260507175515 | 18 | 183 | 4.8 | 9.7 | 0.00 | 0.00 | 0.00 | 47 | 1013.9 |
| 20260507175013 | 18 | 192 | 8.0 | 12.9 | 0.00 | 0.00 | 0.00 | 46 | 1014.1 |
| 20260507174510 | 17 | 209 | 6.4 | 12.9 | 0.00 | 0.00 | 0.00 | 50 | 1014.2 |
| 20260507174008 | 18 | 194 | 6.4 | 11.3 | 0.00 | 0.00 | 0.00 | 48 | 1014.1 |
| 20260507173504 | 17 | 226 | 6.4 | 11.3 | 0.00 | 0.00 | 0.00 | 48 | 1014.2 |
| 20260507173001 | 17 | 172 | 1.6 | 3.2 | 0.00 | 0.00 | 0.00 | 50 | 1014.2 |
| 20260507172457 | 17 | 119 | 1.6 | 3.2 | 0.00 | 0.00 | 0.00 | 48 | 1014.0 |
| 20260507171954 | 17 | 159 | 4.8 | 11.3 | 0.00 | 0.00 | 0.00 | 49 | 1014.2 |
| 20260507171449 | 17 | 217 | 3.2 | 4.8 | 0.00 | 0.00 | 0.00 | 48 | 1014.4 |
| 20260507170947 | 17 | 353 | 3.2 | 3.2 | 0.00 | 0.00 | 0.00 | 50 | 1014.5 |
| 20260507170444 | 17 | 170 | 6.4 | 11.3 | 0.00 | 0.00 | 0.00 | 49 | 1014.9 |
| 20260507165940 | 17 | 185 | 1.6 | 1.6 | 0.00 | 0.00 | 0.00 | 49 | 1015.0 |
| 20260507165436 | 18 | 120 | 3.2 | 8.0 | 0.00 | 0.00 | 0.00 | 47 | 1015.0 |
| 20260507164932 | 18 | 186 | 9.7 | 12.9 | 0.00 | 0.00 | 0.00 | 48 | 1015.1 |
| 20260507164429 | 17 | 141 | 1.6 | 1.6 | 0.00 | 0.00 | 0.00 | 49 | 1015.1 |
| 20260507163926 | 17 | 240 | 8.0 | 12.9 | 0.00 | 0.00 | 0.00 | 48 | 1015.2 |
| 20260507163424 | 17 | 119 | 1.6 | 3.2 | 0.00 | 0.00 | 0.00 | 48 | 1015.4 |
| 20260507162920 | 17 | 314 | 8.0 | 11.3 | 0.00 | 0.00 | 0.00 | 47 | 1015.2 |
| 20260507162415 | 17 | 224 | 9.7 | 12.9 | 0.00 | 0.00 | 0.00 | 49 | 1015.2 |
| 20260507161913 | 17 | 169 | 3.2 | 3.2 | 0.00 | 0.00 | 0.00 | 49 | 1015.3 |
| 20260507161409 | 17 | 283 | 3.2 | 4.8 | 0.00 | 0.00 | 0.00 | 49 | 1015.3 |
| 20260507160906 | 17 | 173 | 3.2 | 3.2 | 0.00 | 0.00 | 0.00 | 50 | 1015.2 |
| 20260507160402 | 17 | 288 | 1.6 | 1.6 | 0.00 | 0.00 | 0.00 | 49 | 1015.4 |
| 20260507155858 | 17 | 166 | 3.2 | 4.8 | 0.00 | 0.00 | 0.00 | 50 | 1015.2 |
| 20260507155354 | 17 | 101 | 3.2 | 9.7 | 0.00 | 0.00 | 0.00 | 48 | 1015.4 |
| 20260507154851 | 17 | 137 | 1.6 | 3.2 | 0.00 | 0.00 | 0.00 | 49 | 1015.5 |
| 20260507154348 | 17 | 195 | 8.0 | 11.3 | 0.00 | 0.00 | 0.00 | 50 | 1015.4 |
| 20260507153845 | 17 | 239 | 4.8 | 8.0 | 0.00 | 0.00 | 0.00 | 49 | 1015.5 |
| 20260507153341 | 16 | 227 | 9.7 | 16.1 | 0.00 | 0.00 | 0.00 | 50 | 1015.6 |
| 20260507152838 | 16 | 149 | 3.2 | 3.2 | 0.00 | 0.00 | 0.00 | 51 | 1015.6 |
| 20260507152334 | 16 | 76 | 4.8 | 9.7 | 0.00 | 0.00 | 0.00 | 51 | 1015.7 |
| 20260507151831 | 16 | 31 | 1.6 | 3.2 | 0.00 | 0.00 | 0.00 | 51 | 1015.7 |
| 20260507151327 | 16 | 222 | 6.4 | 12.9 | 0.00 | 0.00 | 0.00 | 52 | 1015.9 |
| 20260507150824 | 16 | 15 | 3.2 | 8.0 | 0.00 | 0.00 | 0.00 | 53 | 1015.8 |
| 20260507150320 | 16 | 226 | 0.0 | 1.6 | 0.00 | 0.00 | 0.00 | 53 | 1015.9 |
| 20260507145817 | 15 | 139 | 1.6 | 1.6 | 0.00 | 0.00 | 0.00 | 55 | 1016.0 |
| 20260507145313 | 15 | 166 | 6.4 | 9.7 | 0.00 | 0.00 | 0.00 | 54 | 1015.8 |
| 20260507144811 | 15 | 218 | 4.8 | 8.0 | 0.00 | 0.00 | 0.00 | 55 | 1016.1 |
| 20260507144308 | 15 | 295 | 4.8 | 4.8 | 0.00 | 0.00 | 0.00 | 57 | 1015.9 |
| 20260507143804 | 15 | 207 | 4.8 | 4.8 | 0.00 | 0.00 | 0.00 | 57 | 1015.9 |
| 20260507143302 | 14 | 206 | 6.4 | 8.0 | 0.00 | 0.00 | 0.00 | 58 | 1015.9 |
| 20260507142757 | 14 | 189 | 6.4 | 9.7 | 0.00 | 0.00 | 0.00 | 59 | 1015.9 |
| 20260507142254 | 14 | 207 | 8.0 | 11.3 | 0.00 | 0.00 | 0.00 | 60 | 1016.0 |
| 20260507141750 | 13 | 192 | 1.6 | 3.2 | 0.00 | 0.00 | 0.00 | 62 | 1016.1 |
| 20260507141248 | 13 | 291 | 3.2 | 3.2 | 0.00 | 0.00 | 0.00 | 63 | 1016.2 |
| 20260507140743 | 13 | 171 | 0.0 | 1.6 | 0.00 | 0.00 | 0.00 | 63 | 1016.0 |
| 20260507140241 | 13 | 219 | 9.7 | 12.9 | 0.00 | 0.00 | 0.00 | 63 | 1016.3 |
| 20260507135738 | 12 | 171 | 1.6 | 1.6 | 0.00 | 0.00 | 0.00 | 66 | 1016.2 |
| 20260507135235 | 12 | 166 | 0.0 | 0.0 | 0.00 | 0.00 | 0.00 | 67 | 1016.0 |
| 20260507134731 | 12 | 148 | 1.6 | 3.2 | 0.00 | 0.00 | 0.00 | 67 | 1016.2 |
| 20260507134222 | 12 | 143 | 1.6 | 3.2 | 0.00 | 0.00 | 0.00 | 68 | 1016.2 |
| 20260507133718 | 11 | 167 | 1.6 | 1.6 | 0.00 | 0.00 | 0.00 | 68 | 1016.1 |
| 20260507133216 | 11 | 243 | 1.6 | 3.2 | 0.00 | 0.00 | 0.00 | 69 | 1015.9 |
| 20260507132713 | 11 | 194 | 4.8 | 4.8 | 0.00 | 0.00 | 0.00 | 69 | 1016.0 |
| 20260507132209 | 11 | 192 | 0.0 | 1.6 | 0.00 | 0.00 | 0.00 | 70 | 1016.1 |
| 20260507131706 | 10 | 169 | 0.0 | 0.0 | 0.00 | 0.00 | 0.00 | 70 | 1016.2 |
| 20260507131204 | 10 | 186 | 1.6 | 3.2 | 0.00 | 0.00 | 0.00 | 70 | 1016.3 |
| 20260507130700 | 10 | 168 | 3.2 | 4.8 | 0.00 | 0.00 | 0.00 | 71 | 1016.5 |
| 20260507130157 | 10 | 191 | 0.0 | 1.6 | 0.00 | 0.00 | 0.00 | 71 | 1016.4 |
| 20260507125656 | 9 | 176 | 1.6 | 1.6 | 0.00 | 0.00 | 0.00 | 73 | 1016.5 |
| 20260507125154 | 8 | 170 | 0.0 | 1.6 | 0.00 | 0.00 | 0.00 | 74 | 1016.6 |
| 20260507124650 | 8 | 267 | 0.0 | 1.6 | 0.00 | 0.00 | 0.00 | 75 | 1016.5 |
| 20260507124147 | 8 | 197 | 1.6 | 3.2 | 0.00 | 0.00 | 0.00 | 77 | 1016.5 |
| 20260507123645 | 7 | 178 | 0.0 | 0.0 | 0.00 | 0.00 | 0.00 | 81 | 1016.3 |
| 20260507123142 | 7 | 158 | 0.0 | 0.0 | 0.00 | 0.00 | 0.00 | 85 | 1016.4 |
| 20260507122637 | 6 | 170 | 0.0 | 0.0 | 0.00 | 0.00 | 0.00 | 92 | 1016.5 |
| 20260507122133 | 5 | 162 | 0.0 | 0.0 | 0.00 | 0.00 | 0.00 | 94 | 1016.5 |
| 20260507121629 | 5 | 159 | 0.0 | 0.0 | 0.00 | 0.00 | 0.00 | 96 | 1016.9 |
| 20260507121126 | 5 | 158 | 0.0 | 0.0 | 0.00 | 0.00 | 0.00 | 96 | 1016.5 |
| 20260507120622 | 4 | 158 | 0.0 | 0.0 | 0.00 | 0.00 | 0.00 | 96 | 1016.6 |
| 20260507120119 | 3 | 158 | 0.0 | 0.0 | 0.00 | 0.00 | 0.00 | 96 | 1016.3 |
| 20260507115615 | 3 | 158 | 0.0 | 0.0 | 0.00 | 0.00 | 0.00 | 96 | 1016.3 |
| 20260507115111 | 3 | 158 | 0.0 | 0.0 | 0.00 | 0.00 | 0.00 | 96 | 1016.5 |
| 20260507114607 | 3 | 158 | 0.0 | 0.0 | 0.00 | 0.00 | 0.00 | 96 | 1016.2 |
| 20260507114104 | 3 | 158 | 0.0 | 0.0 | 0.00 | 0.00 | 0.00 | 96 | 1016.4 |
| 20260507113601 | 3 | 158 | 0.0 | 0.0 | 0.00 | 0.00 | 0.00 | 96 | 1016.3 |
| 20260507113058 | 3 | 158 | 0.0 | 0.0 | 0.00 | 0.00 | 0.00 | 96 | 1016.5 |
| 20260507112556 | 3 | 158 | 0.0 | 0.0 | 0.00 | 0.00 | 0.00 | 96 | 1016.5 |
| 20260507112053 | 3 | 158 | 0.0 | 0.0 | 0.00 | 0.00 | 0.00 | 96 | 1016.4 |
| 20260507111550 | 3 | 158 | 0.0 | 0.0 | 0.00 | 0.00 | 0.00 | 96 | 1016.5 |
| 20260507111046 | 3 | 158 | 0.0 | 0.0 | 0.00 | 0.00 | 0.00 | 96 | 1016.2 |
| 20260507110543 | 3 | 158 | 0.0 | 0.0 | 0.00 | 0.00 | 0.00 | 96 | 1016.3 |
| 20260507110039 | 3 | 158 | 0.0 | 0.0 | 0.00 | 0.00 | 0.00 | 96 | 1016.1 |
| 20260507105536 | 3 | 158 | 0.0 | 0.0 | 0.00 | 0.00 | 0.00 | 96 | 1016.2 |
| 20260507105032 | 3 | 158 | 0.0 | 0.0 | 0.00 | 0.00 | 0.00 | 96 | 1016.2 |
| 20260507104530 | 3 | 158 | 0.0 | 0.0 | 0.00 | 0.00 | 0.00 | 96 | 1016.2 |
| 20260507104026 | 3 | 158 | 0.0 | 0.0 | 0.00 | 0.00 | 0.00 | 96 | 1016.3 |
| 20260507103522 | 3 | 158 | 0.0 | 0.0 | 0.00 | 0.00 | 0.00 | 96 | 1016.2 |
| 20260507103019 | 3 | 158 | 0.0 | 0.0 | 0.00 | 0.00 | 0.00 | 95 | 1016.2 |
| 20260507102516 | 3 | 158 | 0.0 | 0.0 | 0.00 | 0.00 | 0.00 | 95 | 1016.2 |
| 20260507102012 | 3 | 158 | 0.0 | 0.0 | 0.00 | 0.00 | 0.00 | 95 | 1016.4 |
| 20260507101507 | 3 | 158 | 0.0 | 0.0 | 0.00 | 0.00 | 0.00 | 95 | 1016.2 |
| 20260507101004 | 3 | 158 | 0.0 | 0.0 | 0.00 | 0.00 | 0.00 | 95 | 1016.3 |
| 20260507100501 | 3 | 158 | 0.0 | 0.0 | 0.00 | 0.00 | 0.00 | 95 | 1016.1 |
| 20260507095959 | 3 | 158 | 0.0 | 0.0 | 0.00 | 0.00 | 0.00 | 95 | 1016.2 |
| 20260507095457 | 3 | 158 | 0.0 | 0.0 | 0.00 | 0.00 | 0.00 | 95 | 1016.5 |
| 20260507094948 | 3 | 158 | 0.0 | 0.0 | 0.00 | 0.00 | 0.00 | 95 | 1016.5 |
| 20260507094444 | 3 | 158 | 0.0 | 0.0 | 0.00 | 0.00 | 0.00 | 95 | 1016.5 |
| 20260507093941 | 3 | 158 | 0.0 | 0.0 | 0.00 | 0.00 | 0.00 | 95 | 1016.6 |
| 20260507093439 | 3 | 158 | 0.0 | 0.0 | 0.00 | 0.00 | 0.00 | 95 | 1016.5 |
| 20260507092937 | 3 | 158 | 0.0 | 0.0 | 0.00 | 0.00 | 0.00 | 95 | 1016.3 |
| 20260507092433 | 3 | 158 | 0.0 | 0.0 | 0.00 | 0.00 | 0.00 | 95 | 1016.6 |
| 20260507091930 | 3 | 158 | 0.0 | 0.0 | 0.00 | 0.00 | 0.00 | 95 | 1016.5 |
| 20260507091426 | 3 | 158 | 0.0 | 0.0 | 0.00 | 0.00 | 0.00 | 95 | 1016.4 |
| 20260507090922 | 3 | 158 | 0.0 | 0.0 | 0.00 | 0.00 | 0.00 | 95 | 1016.7 |
| 20260507090418 | 3 | 158 | 0.0 | 0.0 | 0.00 | 0.00 | 0.00 | 94 | 1016.6 |
| 20260507085915 | 3 | 158 | 0.0 | 0.0 | 0.00 | 0.00 | 0.00 | 94 | 1016.6 |
| 20260507085412 | 3 | 158 | 0.0 | 0.0 | 0.00 | 0.00 | 0.00 | 94 | 1016.6 |
| 20260507084909 | 3 | 158 | 0.0 | 0.0 | 0.00 | 0.00 | 0.00 | 94 | 1016.6 |
| 20260507084406 | 3 | 158 | 0.0 | 0.0 | 0.00 | 0.00 | 0.00 | 94 | 1016.5 |
| 20260507083903 | 3 | 158 | 0.0 | 0.0 | 0.00 | 0.00 | 0.00 | 94 | 1016.5 |
| 20260507083359 | 3 | 158 | 0.0 | 0.0 | 0.00 | 0.00 | 0.00 | 94 | 1016.6 |
| 20260507082856 | 4 | 158 | 0.0 | 0.0 | 0.00 | 0.00 | 0.00 | 94 | 1016.6 |
| 20260507082351 | 4 | 158 | 0.0 | 0.0 | 0.00 | 0.00 | 0.00 | 94 | 1016.6 |
| 20260507081849 | 4 | 158 | 0.0 | 0.0 | 0.00 | 0.00 | 0.00 | 94 | 1016.6 |
| 20260507081345 | 4 | 158 | 0.0 | 0.0 | 0.00 | 0.00 | 0.00 | 94 | 1016.8 |
| 20260507080842 | 4 | 158 | 0.0 | 0.0 | 0.00 | 0.00 | 0.00 | 93 | 1016.7 |
| 20260507080338 | 4 | 158 | 0.0 | 0.0 | 0.00 | 0.00 | 0.00 | 93 | 1016.6 |
| 20260507075833 | 4 | 158 | 0.0 | 0.0 | 0.00 | 0.00 | 0.00 | 93 | 1016.6 |
| 20260507075330 | 4 | 158 | 0.0 | 0.0 | 0.00 | 0.00 | 0.00 | 93 | 1016.4 |
| 20260507074826 | 4 | 158 | 0.0 | 0.0 | 0.00 | 0.00 | 0.00 | 93 | 1016.6 |
| 20260507074324 | 5 | 158 | 0.0 | 0.0 | 0.00 | 0.00 | 0.00 | 93 | 1016.3 |
| 20260507073821 | 5 | 158 | 0.0 | 0.0 | 0.00 | 0.00 | 0.00 | 93 | 1016.6 |
| 20260507073318 | 5 | 158 | 0.0 | 0.0 | 0.00 | 0.00 | 0.00 | 92 | 1016.6 |
| 20260507072815 | 5 | 158 | 0.0 | 0.0 | 0.00 | 0.00 | 0.00 | 92 | 1016.8 |
| 20260507072312 | 5 | 158 | 0.0 | 0.0 | 0.00 | 0.00 | 0.00 | 92 | 1016.9 |
| 20260507071809 | 5 | 158 | 0.0 | 0.0 | 0.00 | 0.00 | 0.00 | 92 | 1016.8 |
| 20260507071306 | 5 | 158 | 0.0 | 0.0 | 0.00 | 0.00 | 0.00 | 92 | 1017.0 |
| 20260507070802 | 5 | 158 | 0.0 | 0.0 | 0.00 | 0.00 | 0.00 | 92 | 1017.1 |
| 20260507070300 | 5 | 158 | 0.0 | 0.0 | 0.00 | 0.00 | 0.00 | 91 | 1017.1 |
| 20260507065756 | 5 | 158 | 0.0 | 0.0 | 0.00 | 0.00 | 0.00 | 91 | 1017.0 |
| 20260507065253 | 5 | 158 | 0.0 | 0.0 | 0.00 | 0.00 | 0.00 | 91 | 1016.9 |
| 20260507064750 | 5 | 158 | 0.0 | 0.0 | 0.00 | 0.00 | 0.00 | 91 | 1017.0 |
| 20260507064249 | 5 | 158 | 0.0 | 0.0 | 0.00 | 0.00 | 0.00 | 91 | 1017.0 |
| 20260507063746 | 5 | 158 | 0.0 | 0.0 | 0.00 | 0.00 | 0.00 | 91 | 1017.4 |
| 20260507063243 | 5 | 158 | 0.0 | 0.0 | 0.00 | 0.00 | 0.00 | 91 | 1017.2 |
| 20260507062740 | 5 | 158 | 0.0 | 0.0 | 0.00 | 0.00 | 0.00 | 91 | 1017.2 |
| 20260507062237 | 5 | 158 | 0.0 | 0.0 | 0.00 | 0.00 | 0.00 | 91 | 1017.2 |
| 20260507061735 | 5 | 158 | 0.0 | 0.0 | 0.00 | 0.00 | 0.00 | 91 | 1017.1 |
| 20260507061232 | 5 | 158 | 0.0 | 0.0 | 0.00 | 0.00 | 0.00 | 91 | 1017.2 |
| 20260507060731 | 5 | 158 | 0.0 | 0.0 | 0.00 | 0.00 | 0.00 | 91 | 1017.4 |
| 20260507060227 | 5 | 158 | 0.0 | 0.0 | 0.00 | 0.00 | 0.00 | 91 | 1017.0 |
| 20260507055723 | 5 | 159 | 0.0 | 0.0 | 0.00 | 0.00 | 0.00 | 91 | 1017.4 |
| 20260507055219 | 5 | 158 | 0.0 | 0.0 | 0.00 | 0.00 | 0.00 | 91 | 1017.3 |
| 20260507054715 | 5 | 158 | 0.0 | 0.0 | 0.00 | 0.00 | 0.00 | 91 | 1017.3 |
| 20260507054212 | 5 | 158 | 0.0 | 0.0 | 0.00 | 0.00 | 0.00 | 91 | 1017.3 |
| 20260507053710 | 5 | 158 | 0.0 | 0.0 | 0.00 | 0.00 | 0.00 | 91 | 1017.3 |
| 20260507053208 | 5 | 158 | 0.0 | 0.0 | 0.00 | 0.00 | 0.00 | 91 | 1017.3 |
| 20260507052706 | 5 | 158 | 0.0 | 0.0 | 0.00 | 0.00 | 0.00 | 91 | 1017.2 |
| 20260507052202 | 5 | 158 | 0.0 | 0.0 | 0.00 | 0.00 | 0.00 | 91 | 1017.2 |
| 20260507051700 | 5 | 158 | 0.0 | 0.0 | 0.00 | 0.00 | 0.00 | 90 | 1017.2 |
| 20260507051156 | 5 | 158 | 0.0 | 0.0 | 0.00 | 0.00 | 0.00 | 90 | 1017.3 |
| 20260507050653 | 5 | 158 | 0.0 | 0.0 | 0.00 | 0.00 | 0.00 | 90 | 1017.2 |
| 20260507050150 | 5 | 158 | 0.0 | 0.0 | 0.00 | 0.00 | 0.00 | 90 | 1017.3 |
| 20260507045647 | 5 | 158 | 0.0 | 0.0 | 0.00 | 0.03 | 0.03 | 90 | 1017.3 |
| 20260507045143 | 5 | 158 | 0.0 | 0.0 | 0.00 | 0.03 | 0.03 | 89 | 1017.4 |
| 20260507044640 | 5 | 158 | 0.0 | 0.0 | 0.00 | 0.03 | 0.03 | 89 | 1017.3 |
| 20260507044137 | 5 | 158 | 0.0 | 0.0 | 0.00 | 0.03 | 0.03 | 88 | 1017.3 |
| 20260507043633 | 5 | 158 | 0.0 | 0.0 | 0.00 | 0.03 | 0.03 | 88 | 1017.3 |
| 20260507043130 | 5 | 158 | 0.0 | 0.0 | 0.00 | 0.03 | 0.03 | 88 | 1017.2 |
| 20260507042626 | 5 | 158 | 0.0 | 0.0 | 0.00 | 0.03 | 0.03 | 87 | 1017.2 |
| 20260507042121 | 5 | 158 | 0.0 | 0.0 | 0.00 | 0.03 | 0.03 | 87 | 1017.3 |
| 20260507041619 | 6 | 158 | 0.0 | 0.0 | 0.00 | 0.03 | 0.03 | 86 | 1017.2 |
| 20260507041115 | 6 | 159 | 0.0 | 0.0 | 0.00 | 0.03 | 0.03 | 86 | 1017.3 |
| 20260507040612 | 6 | 158 | 0.0 | 0.0 | 0.00 | 0.03 | 0.03 | 86 | 1017.5 |
| 20260507040109 | 6 | 158 | 0.0 | 0.0 | 0.00 | 0.03 | 0.03 | 85 | 1017.4 |
| 20260507035605 | 6 | 158 | 0.0 | 0.0 | 0.00 | 0.03 | 0.03 | 84 | 1017.9 |
| 20260507035101 | 6 | 158 | 0.0 | 0.0 | 0.00 | 0.03 | 0.03 | 83 | 1017.7 |
| 20260507034558 | 6 | 158 | 0.0 | 0.0 | 0.00 | 0.03 | 0.03 | 82 | 1017.4 |
| 20260507034056 | 6 | 158 | 0.0 | 0.0 | 0.00 | 0.03 | 0.03 | 82 | 1017.4 |
| 20260507033554 | 6 | 158 | 0.0 | 0.0 | 0.00 | 0.03 | 0.03 | 80 | 1017.3 |
| 20260507033050 | 6 | 158 | 0.0 | 0.0 | 0.00 | 0.03 | 0.03 | 79 | 1017.4 |
| 20260507032548 | 6 | 158 | 0.0 | 0.0 | 0.00 | 0.03 | 0.03 | 78 | 1017.4 |
| 20260507032044 | 6 | 158 | 0.0 | 0.0 | 0.00 | 0.03 | 0.03 | 77 | 1017.4 |
| 20260507031540 | 6 | 158 | 0.0 | 0.0 | 0.00 | 0.03 | 0.03 | 76 | 1017.5 |
| 20260507031037 | 7 | 158 | 0.0 | 0.0 | 0.00 | 0.03 | 0.03 | 76 | 1017.5 |
| 20260507030534 | 7 | 158 | 0.0 | 0.0 | 0.00 | 0.03 | 0.03 | 74 | 1017.3 |
| 20260507030032 | 7 | 158 | 0.0 | 0.0 | 0.00 | 0.03 | 0.03 | 73 | 1017.3 |
| 20260507025529 | 7 | 158 | 0.0 | 0.0 | 0.00 | 0.03 | 0.03 | 71 | 1017.3 |
| 20260507025026 | 7 | 158 | 0.0 | 0.0 | 0.00 | 0.03 | 0.03 | 70 | 1017.2 |
| 20260507024524 | 7 | 158 | 0.0 | 0.0 | 0.00 | 0.03 | 0.03 | 68 | 1017.2 |
| 20260507024020 | 8 | 157 | 0.0 | 0.0 | 0.00 | 0.03 | 0.03 | 68 | 1017.0 |
| 20260507023516 | 8 | 157 | 0.0 | 0.0 | 0.00 | 0.03 | 0.03 | 66 | 1017.2 |
| 20260507023014 | 8 | 158 | 0.0 | 0.0 | 0.00 | 0.03 | 0.03 | 65 | 1017.0 |
| 20260507022511 | 8 | 158 | 0.0 | 0.0 | 0.00 | 0.03 | 0.03 | 64 | 1017.4 |
| 20260507022006 | 8 | 158 | 0.0 | 0.0 | 0.00 | 0.03 | 0.03 | 64 | 1017.0 |
| 20260507021502 | 8 | 158 | 0.0 | 0.0 | 0.00 | 0.03 | 0.03 | 62 | 1017.0 |
| 20260507020959 | 8 | 158 | 0.0 | 0.0 | 0.00 | 0.03 | 0.03 | 62 | 1016.8 |
| 20260507020456 | 9 | 154 | 0.0 | 0.0 | 0.00 | 0.03 | 0.03 | 61 | 1016.8 |
| 20260507015953 | 9 | 157 | 0.0 | 0.0 | 0.00 | 0.03 | 0.03 | 60 | 1016.8 |
| 20260507015451 | 10 | 163 | 0.0 | 1.6 | 0.00 | 0.03 | 0.03 | 59 | 1017.0 |
| 20260507014942 | 10 | 164 | 0.0 | 0.0 | 0.00 | 0.03 | 0.03 | 58 | 1016.9 |
| 20260507014439 | 10 | 161 | 0.0 | 0.0 | 0.00 | 0.03 | 0.03 | 57 | 1017.0 |
| 20260507013935 | 10 | 155 | 0.0 | 0.0 | 0.00 | 0.03 | 0.03 | 57 | 1016.6 |
| 20260507013432 | 11 | 154 | 0.0 | 0.0 | 0.00 | 0.03 | 0.03 | 54 | 1016.7 |
| 20260507012929 | 11 | 155 | 0.0 | 0.0 | 0.00 | 0.03 | 0.03 | 53 | 1016.6 |
| 20260507012426 | 11 | 157 | 0.0 | 0.0 | 0.00 | 0.03 | 0.03 | 52 | 1016.4 |
| 20260507011922 | 12 | 162 | 0.0 | 0.0 | 0.00 | 0.03 | 0.03 | 48 | 1016.4 |
| 20260507011420 | 13 | 136 | 0.0 | 0.0 | 0.00 | 0.03 | 0.03 | 39 | 1016.5 |
| 20260507010919 | 13 | 136 | 0.0 | 0.0 | 0.00 | 0.03 | 0.03 | 38 | 1016.4 |
| 20260507010415 | 13 | 136 | 0.0 | 0.0 | 0.00 | 0.03 | 0.03 | 36 | 1016.5 |
| 20260507005912 | 13 | 128 | 1.6 | 1.6 | 0.00 | 0.03 | 0.03 | 35 | 1016.3 |
| 20260507005409 | 13 | 140 | 0.0 | 0.0 | 0.00 | 0.03 | 0.03 | 35 | 1016.4 |
| 20260507004905 | 14 | 142 | 0.0 | 0.0 | 0.00 | 0.03 | 0.03 | 35 | 1016.3 |
| 20260507004403 | 14 | 122 | 0.0 | 1.6 | 0.00 | 0.03 | 0.03 | 34 | 1016.4 |
| 20260507003900 | 14 | 113 | 0.0 | 1.6 | 0.00 | 0.03 | 0.03 | 35 | 1016.0 |
| 20260507003355 | 14 | 110 | 0.0 | 0.0 | 0.00 | 0.03 | 0.03 | 35 | 1016.4 |
| 20260507002851 | 15 | 123 | 3.2 | 3.2 | 0.00 | 0.03 | 0.03 | 35 | 1016.3 |
| 20260507002347 | 15 | 37 | 0.0 | 1.6 | 0.00 | 0.03 | 0.03 | 34 | 1016.1 |
| 20260507001844 | 15 | 85 | 3.2 | 3.2 | 0.00 | 0.03 | 0.03 | 33 | 1016.4 |
| 20260507001341 | 15 | 31 | 6.4 | 8.0 | 0.00 | 0.03 | 0.03 | 33 | 1016.3 |
| 20260507000837 | 15 | 80 | 0.0 | 1.6 | 0.00 | 0.03 | 0.03 | 34 | 1016.3 |
| 20260507000333 | 15 | 116 | 0.0 | 0.0 | 0.00 | 0.03 | 0.03 | 33 | 1016.3 |
| 20260506235829 | 15 | 115 | 0.0 | 1.6 | 0.00 | 0.03 | 0.03 | 33 | 1016.6 |
| 20260506235326 | 15 | 63 | 3.2 | 3.2 | 0.00 | 0.03 | 0.03 | 32 | 1016.4 |
| 20260506234822 | 15 | 116 | 0.0 | 1.6 | 0.00 | 0.03 | 0.03 | 32 | 1016.3 |
| 20260506234320 | 15 | 154 | 0.0 | 0.0 | 0.00 | 0.03 | 0.03 | 32 | 1016.3 |
| 20260506233818 | 15 | 151 | 0.0 | 1.6 | 0.00 | 0.03 | 0.03 | 33 | 1016.3 |
| 20260506233313 | 16 | 74 | 4.8 | 8.0 | 0.00 | 0.03 | 0.03 | 32 | 1016.4 |
| 20260506232810 | 16 | 92 | 0.0 | 1.6 | 0.00 | 0.03 | 0.03 | 31 | 1016.1 |
| 20260506232306 | 16 | 120 | 0.0 | 1.6 | 0.00 | 0.03 | 0.03 | 32 | 1016.1 |
| 20260506231803 | 16 | 114 | 1.6 | 3.2 | 0.00 | 0.03 | 0.03 | 31 | 1016.2 |
| 20260506231301 | 16 | 112 | 0.0 | 0.0 | 0.00 | 0.03 | 0.03 | 32 | 1016.3 |
| 20260506230758 | 16 | 79 | 1.6 | 1.6 | 0.00 | 0.03 | 0.03 | 32 | 1016.3 |
| 20260506230255 | 16 | 132 | 0.0 | 0.0 | 0.00 | 0.03 | 0.03 | 33 | 1016.3 |
| 20260506225751 | 16 | 75 | 1.6 | 1.6 | 0.00 | 0.03 | 0.03 | 31 | 1016.4 |
| 20260506225248 | 17 | 75 | 4.8 | 8.0 | 0.00 | 0.03 | 0.03 | 30 | 1016.3 |
| 20260506224744 | 16 | 67 | 1.6 | 1.6 | 0.00 | 0.03 | 0.03 | 31 | 1016.2 |
| 20260506224242 | 16 | 174 | 1.6 | 1.6 | 0.00 | 0.03 | 0.03 | 31 | 1016.2 |
| 20260506223738 | 17 | 130 | 0.0 | 0.0 | 0.00 | 0.03 | 0.03 | 33 | 1016.3 |
| 20260506223234 | 16 | 127 | 0.0 | 1.6 | 0.00 | 0.03 | 0.03 | 32 | 1016.2 |
| 20260506222731 | 16 | 151 | 0.0 | 0.0 | 0.00 | 0.03 | 0.03 | 32 | 1016.5 |
| 20260506222226 | 16 | 120 | 0.0 | 1.6 | 0.00 | 0.03 | 0.03 | 32 | 1016.3 |
| 20260506221725 | 16 | 122 | 0.0 | 0.0 | 0.00 | 0.03 | 0.03 | 33 | 1016.3 |
| 20260506221223 | 17 | 55 | 3.2 | 4.8 | 0.00 | 0.03 | 0.03 | 33 | 1016.4 |
| 20260506220720 | 17 | 147 | 0.0 | 0.0 | 0.00 | 0.03 | 0.03 | 31 | 1016.5 |
| 20260506220214 | 16 | 136 | 0.0 | 0.0 | 0.00 | 0.03 | 0.03 | 33 | 1016.6 |
| 20260506215711 | 16 | 167 | 3.2 | 3.2 | 0.00 | 0.03 | 0.03 | 32 | 1016.4 |
| 20260506215206 | 16 | 95 | 0.0 | 0.0 | 0.00 | 0.03 | 0.03 | 33 | 1016.5 |
| 20260506214703 | 16 | 77 | 1.6 | 1.6 | 0.00 | 0.03 | 0.03 | 31 | 1016.5 |
| 20260506214201 | 16 | 20 | 8.0 | 9.7 | 0.00 | 0.03 | 0.03 | 31 | 1016.6 |
| 20260506213659 | 16 | 77 | 0.0 | 1.6 | 0.00 | 0.03 | 0.03 | 33 | 1016.5 |
| 20260506213156 | 15 | 61 | 1.6 | 3.2 | 0.00 | 0.03 | 0.03 | 31 | 1016.5 |
| 20260506212653 | 16 | 57 | 4.8 | 4.8 | 0.00 | 0.03 | 0.03 | 31 | 1016.5 |
| 20260506212148 | 16 | 72 | 1.6 | 1.6 | 0.00 | 0.03 | 0.03 | 31 | 1016.8 |
| 20260506211644 | 16 | 83 | 4.8 | 4.8 | 0.00 | 0.03 | 0.03 | 31 | 1016.8 |
| 20260506211141 | 16 | 113 | 0.0 | 0.0 | 0.00 | 0.03 | 0.03 | 31 | 1016.9 |
| 20260506210637 | 16 | 49 | 3.2 | 3.2 | 0.00 | 0.03 | 0.03 | 32 | 1017.2 |
| 20260506210134 | 16 | 178 | 1.6 | 3.2 | 0.00 | 0.03 | 0.03 | 31 | 1017.2 |
| 20260506205631 | 16 | 101 | 0.0 | 1.6 | 0.00 | 0.03 | 0.03 | 32 | 1017.0 |
| 20260506205126 | 16 | 136 | 0.0 | 0.0 | 0.00 | 0.03 | 0.03 | 36 | 1017.1 |
| 20260506204624 | 15 | 82 | 0.0 | 1.6 | 0.00 | 0.03 | 0.03 | 33 | 1017.3 |
| 20260506204121 | 15 | 48 | 4.8 | 4.8 | 0.00 | 0.03 | 0.03 | 34 | 1017.3 |
| 20260506203619 | 15 | 116 | 3.2 | 3.2 | 0.00 | 0.03 | 0.03 | 31 | 1017.5 |
| 20260506203115 | 15 | 98 | 4.8 | 4.8 | 0.00 | 0.03 | 0.03 | 32 | 1017.4 |
| 20260506202614 | 16 | 29 | 4.8 | 4.8 | 0.00 | 0.03 | 0.03 | 31 | 1017.4 |
| 20260506202109 | 16 | 304 | 4.8 | 4.8 | 0.00 | 0.03 | 0.03 | 33 | 1017.5 |
| 20260506201607 | 16 | 143 | 0.0 | 1.6 | 0.00 | 0.03 | 0.03 | 34 | 1017.7 |
| 20260506201103 | 15 | 159 | 0.0 | 3.2 | 0.00 | 0.03 | 0.03 | 33 | 1017.7 |
| 20260506200600 | 16 | 142 | 0.0 | 1.6 | 0.00 | 0.03 | 0.03 | 32 | 1017.7 |
| 20260506200056 | 16 | 111 | 3.2 | 4.8 | 0.00 | 0.03 | 0.03 | 33 | 1017.9 |
| 20260506195553 | 15 | 64 | 3.2 | 3.2 | 0.00 | 0.03 | 0.03 | 33 | 1018.0 |
| 20260506195049 | 15 | 74 | 1.6 | 3.2 | 0.00 | 0.03 | 0.03 | 31 | 1018.1 |
| 20260506194548 | 15 | 82 | 3.2 | 3.2 | 0.00 | 0.03 | 0.03 | 33 | 1017.7 |
| 20260506194043 | 15 | 64 | 4.8 | 8.0 | 0.00 | 0.03 | 0.03 | 31 | 1017.9 |
| 20260506193541 | 15 | 78 | 1.6 | 3.2 | 0.00 | 0.03 | 0.03 | 35 | 1017.7 |
| 20260506193038 | 15 | 205 | 1.6 | 1.6 | 0.00 | 0.03 | 0.03 | 33 | 1017.9 |
| 20260506192535 | 15 | 87 | 1.6 | 3.2 | 0.00 | 0.03 | 0.03 | 31 | 1018.0 |